Content
SEND FEEDBACK

Daily
Averages
Monthly
Summary
United States of America

BAYOU LA BATRE, ALABAMA


Home > North America > United States > Alabama
Elevation: 0 feet     Latitude: 30 23N     Longitude: 088 14W

WEATHER
 
SELECT A DAY
Number of Records: 195,805;   Date Range: 8/14/97 - 8/12/14
 
SHARE

PRINT THIS DATA

[ ← Previous Day ]
WEATHER ALMANAC - MARCH 6, 2014
[ Next Day → ]
[ °C ]   °F
Weather ElementAverageHighLow
Temperature52.1 °F57.9 °F (12:53 pm)46.4 °F (11:51 pm)
Dewpoint50.1 °F53.6 °F (9:50 am)44.1 °F (11:53 pm)
Humidity93.4 %100 % (3:23 am)78 % (1:42 pm)
Barometer29.95 in29.99 in (8:53 am)29.90 in (3:03 pm)
Wind Speed7.2 mph12.7 mph (9:27 pm)
Wind Gust19.6 mph (11:51 pm)
Weather ElementAverage
Visibility7.3 mi
Wind DirectionWSW (247.8 °)

Weather ElementTotal
Precipitation0.47 in
Heating Degree Days12.9 (Base 65)
Growing Degree Days2.2 (Base 50)
Averaged from 54 records on March 6, 2014
WEATHER CONDITIONS BREAKOUT
WIND DIRECTION BREAKOUT
WEATHER BY HOUR - MARCH 6, 2014
[ °C ]   °F
Local TimeTemperatureDewpointHumidityBarometerVisibilityWind DirectionWind SpeedGust SpeedPrecipitationEventsConditions
1:53 AM52.0 °F50.0 °F93 %29.97 in10.0 miEast (80°)5.8 mph0.00 inOvercast
2:43 AM52.0 °F50.0 °F93 %29.95 in10.0 miVariable4.6 mph0.00 inRainLight Rain
2:53 AM52.0 °F50.0 °F93 %29.96 in10.0 miEast (90°)3.5 mph0.00 inOvercast
3:23 AM51.1 °F51.1 °F100 %29.97 in2.0 miCalm0.06 inRainHeavy Rain
3:53 AM51.1 °F50.0 °F96 %29.91 in4.0 miEast (80°)10.4 mph0.14 inRainRain
4:23 AM51.1 °F51.1 °F100 %29.94 in9.0 miWest (280°)4.6 mph0.01 inOvercast
4:53 AM51.1 °F51.1 °F100 %29.92 in8.0 miNNW (340°)5.8 mph0.01 inOvercast
5:09 AM52.0 °F51.1 °F97 %29.91 in8.0 miNorth (10°)4.6 mphOvercast
5:29 AM52.0 °F51.1 °F97 %29.93 in9.0 miENE (70°)4.6 mphOvercast
5:53 AM52.0 °F51.1 °F97 %29.94 in10.0 miCalmOvercast
6:15 AM52.0 °F50.0 °F93 %29.95 in9.0 miNNW (330°)3.5 mphOvercast
6:53 AM51.1 °F50.0 °F96 %29.97 in4.0 miNNW (330°)4.6 mph0.00 inRainLight Rain
7:09 AM51.1 °F51.1 °F100 %29.97 in2.0 miNW (320°)3.5 mph0.00 inRainLight Rain
7:16 AM51.1 °F51.1 °F100 %29.97 in1.8 miNW (320°)4.6 mph0.00 inRainLight Rain
7:24 AM51.1 °F51.1 °F100 %29.97 in1.5 miNW (310°)3.5 mph0.00 inRainLight Rain
7:32 AM52.0 °F51.1 °F97 %29.97 in2.0 miNW (320°)4.6 mph0.00 inRainLight Rain
7:44 AM51.1 °F51.1 °F100 %29.97 in1.8 miNW (320°)3.5 mph0.00 inRainLight Rain
7:53 AM51.1 °F51.1 °F100 %29.98 in1.8 miNNW (340°)5.8 mph0.00 inRainLight Rain
8:01 AM52.0 °F51.1 °F97 %29.97 in2.5 miNNW (340°)4.6 mph0.00 inOvercast
8:12 AM52.0 °F51.1 °F97 %29.98 in3.0 miNW (320°)3.5 mph0.00 inOvercast
8:53 AM52.0 °F51.1 °F97 %29.99 in5.0 miNorth (350°)6.9 mph0.00 inOvercast
9:50 AM55.4 °F53.6 °F94 %29.96 in8.0 miNorth (10°)4.6 mphOvercast
9:53 AM55.0 °F53.1 °F93 %29.97 in8.0 miNorth (10°)5.8 mphOvercast
10:53 AM55.0 °F52.0 °F89 %29.96 in9.0 miNorth (350°)8.1 mphOvercast
11:53 AM55.9 °F52.0 °F87 %29.94 in10.0 miNorth (350°)10.4 mphOvercast
12:20 PM55.9 °F52.0 °F87 %29.93 in10.0 miNorth (360°)9.2 mphOvercast
12:53 PM57.9 °F52.0 °F81 %29.93 in10.0 miNorth (10°)8.1 mphOvercast
1:42 PM57.9 °F51.1 °F78 %29.91 in10.0 miNorth (10°)10.4 mphOvercast
1:53 PM57.9 °F51.1 °F78 %29.91 in10.0 miNorth (360°)10.4 mphOvercast
2:53 PM55.9 °F51.1 °F84 %29.91 in8.0 miNorth (360°)9.2 mphOvercast
3:03 PM55.9 °F51.1 °F84 %29.90 in6.0 miNorth (350°)8.1 mphHaze
3:19 PM54.0 °F51.1 °F90 %29.90 in5.0 miNorth (360°)10.4 mph0.00 inRainLight Rain
3:40 PM53.1 °F51.1 °F93 %29.90 in2.5 miNorth (350°)10.4 mph18.4 mph0.03 inRainHeavy Rain
3:53 PM53.1 °F51.1 °F93 %29.91 in4.0 miNorth (350°)9.2 mph0.06 inRainLight Rain
4:16 PM53.1 °F52.0 °F96 %29.90 in9.0 miNNW (340°)6.9 mph0.00 inRainLight Rain
4:40 PM53.1 °F51.1 °F93 %29.90 in10.0 miNNW (340°)4.6 mph0.00 inOvercast
4:53 PM53.1 °F51.1 °F93 %29.91 in10.0 miNNW (340°)5.8 mph0.00 inOvercast
5:40 PM52.0 °F50.0 °F93 %29.93 in6.0 miNNW (330°)4.6 mph0.01 inRainLight Rain
5:51 PM51.8 °F50.0 °F94 %29.93 in4.0 miNorth (350°)10.4 mph0.03 inRainHeavy Rain
5:53 PM52.0 °F50.0 °F93 %29.93 in4.0 miNNW (340°)8.1 mph0.03 inRainHeavy Rain
6:31 PM51.1 °F50.0 °F96 %29.94 in7.0 miNNW (340°)5.8 mph0.03 inRainLight Rain
6:43 PM51.1 °F50.0 °F96 %29.93 in9.0 miNorth (360°)11.5 mph0.03 inRainLight Rain
6:53 PM51.1 °F48.9 °F92 %29.94 in10.0 miNorth (360°)11.5 mph0.03 inRainLight Rain
7:29 PM50.0 °F48.9 °F96 %29.93 in10.0 miNorth (350°)9.2 mph0.00 inOvercast
7:53 PM50.0 °F48.9 °F96 %29.94 in10.0 miNNW (340°)9.2 mph0.00 inOvercast
8:04 PM50.0 °F48.9 °F96 %29.94 in10.0 miNorth (350°)10.4 mphOvercast
8:53 PM50.0 °F48.9 °F96 %29.96 in10.0 miNNW (340°)8.1 mphOvercast
9:27 PM50.0 °F46.9 °F89 %29.96 in10.0 miNNE (20°)12.7 mph0.00 inOvercast
9:50 PM48.2 °F46.4 °F93 %29.97 in10.0 miNNE (20°)12.7 mph0.00 inOvercast
9:53 PM48.9 °F46.9 °F93 %29.98 in10.0 miNorth (10°)11.5 mph0.00 inOvercast
10:53 PM48.0 °F46.0 °F93 %29.99 in10.0 miNorth (360°)10.4 mphOvercast
11:03 PM48.0 °F45.0 °F89 %29.98 in10.0 miNorth (10°)10.4 mphOvercast
11:51 PM46.4 °F44.6 °F93 %29.98 in10.0 miNorth (350°)9.2 mph19.6 mphOvercast
11:53 PM46.9 °F44.1 °F90 %29.99 in10.0 miNorth (350°)9.2 mph19.6 mphOvercast
Hourly data recorded from KPQL, located miles away from Bayou La Batre, Alabama







STORIES FROM OUR PARTNERS